Regional Weather Roundup
Issued by NWS

Home | Current Version | Previous Version | Text Only | Print | Product List | Glossary Off
Versions: 1 2 3 4 5 6 7 8 9 10 11 12 13 14 15 16 17 18 19 20 21 22 23 24 25 26 27 28 29 30 31 32 33 34 35 36 37 38 39 40 41 42 43 44 45 46 47 48 49 50

000
ASUS43 KLMK 240410
RWRKY
KENTUCKY REGIONAL WEATHER ROUNDUP
NATIONAL WEATHER SERVICE LOUISVILLE KY
1200 AM EDT WED MAY 24 2017

NOTE "FAIR" INDICATES FEW OR NO CLOUDS BELOW 12,000 FEET
WITH NO SIGNIFICANT WEATHER AND/OR OBSTRUCTIONS TO VISIBILITY.

KYZ001>023-026-027-061>063-070>075-240500-
WESTERN AND SOUTH CENTRAL KENTUCKY

CITY           SKY/WX    TMP DP  RH WIND       PRES   REMARKS
PADUCAH        CLOUDY    65  55  70 NW6       29.65F
HENDERSON      CLOUDY    65  56  72 W5        29.65S
OWENSBORO      CLOUDY    66  55  67 W5        29.64F
HOPKINSVILLE   CLOUDY    66  54  63 N3        29.64F
BOWLING GREEN  MOCLDY    66  54  65 CALM      29.65S
GLASGOW        CLOUDY    62  62 100 CALM      29.64F
$$

KYZ024-025-028>034-038-045-046-053-240500-
NORTH CENTRAL KENTUCKY

CITY           SKY/WX    TMP DP  RH WIND       PRES   REMARKS
LOUISVILLE/SDF CLOUDY    68  53  58 W5        29.63S
LOUISVILLE/LOU MOCLDY    69  55  60 CALM      29.63F
FORT KNOX      CLOUDY    64  52  64 CALM      29.62F
$$

KYZ035>037-039>044-047>052-055>060-089>105-240500-
NORTHEAST KENTUCKY

CITY           SKY/WX    TMP DP  RH WIND       PRES   REMARKS
LEXINGTON      PTCLDY    60  56  86 SE6       29.66S
COVINGTON      CLOUDY    66  59  78 SE10      29.63F
FRANKFORT      CLOUDY    62  57  83 SE5       29.65R
$$

KYZ054-064>069-076>088-106>120-240500-
SOUTHEAST KENTUCKY

CITY           SKY/WX    TMP DP  RH WIND       PRES   REMARKS
JACKSON        CLOUDY    60  59  96 CALM      29.68S
LONDON         CLOUDY    59  57  93 CALM      29.69R
SOMERSET       PTCLDY    59  59 100 CALM      29.70R
MIDDLESBORO    LGT RAIN  62  62 100 CALM      29.70R
MONTICELLO     CLOUDY    61  59  93 NW8       29.69S
$$





USA.gov is the U.S. government's official web portal to all federal, state and local government web resources and services.